Weather in Corumba

Brazil     19°00′13″S   57°38′39″W
temp.,
°C
wind,
m/s
gust,
m/s
humid.,
%
clouds,
%
prec.,
mm/h
press.,
hPa
HPBL,
m
18 april, sun
sun1823:00+24s11660 0.0 101011
02:00+21nnw11901 0.8 101011
05:00+20e129517 1.1 101027
08:00+24n118477 1.3 1013168
11:00+34ne11415 0.0 10121197
14:00+34n113897 0.1 10081991
17:00+30nnw115378 0.1 100829
20:00+24sw1176100 1.1 101013
19 april, mon
mon1923:00+24sse008298 0.6 101012
02:00+23w118566 0.9 101015
05:00+21s1193100 0.8 101012
08:00+23ese1190100 2.5 101393
11:00+33ene114672 0.0 1012989
14:00+36n113558 0.0 10082523
17:00+29s115896 0.2 100824
20:00+25wnw11670 0.3 100914
20 april, tue
tue2023:00+23wnw11814 0.0 101015
02:00+22sw118214 0.0 100912
05:00+21e24930 1.3 101184
08:00+24e01840 1.8 1012133
11:00+34ne12410 0.0 10121358
14:00+34ne2241100 0.1 10081878
17:00+30e11515 0.0 100724
20:00+25ne116825 0.1 101011
21 april, wed
wed2123:00+25nne116911 0.0 101018
02:00+23ne11800 0.0 100911
05:00+22ene13880 0.1 101067
08:00+26ene24680 0.1 1012362
11:00+33ne35430 0.0 10111611
14:00+32n2542100 0.0 10071278
17:00+31nne264815 0.0 1007283
20:00+27ene115942 0.0 100930
22 april, thu
thu2223:00+24ne11690 0.0 100911
02:00+23n11740 0.0 100811
05:00+22e11780 0.0 100920
08:00+26nne26750 0.4 1011328
11:00+34n47394 0.0 10102352
14:00+33n253970 0.0 10071334
17:00+30nnw264770 0.0 1006254
20:00+25ne11683 0.0 100811